Showing default

UKUBE 1, 40074

Orbit data source: Space-Track

UKUBE 1, 40074 is a payload satellite owned by UKSA (UK) in SSO that was launched on Tue, 08 Jul 2014 UTC via a SOYUZ-2-1B launch vehicle from the Tyuratam Missile And Space Complex (TTMTR). Payload-class satellites include a variety of spacecraft equipped with specific instruments for various scientific and technological missions. These include communications satellites like Starlink; space stations such as the ISS; scientific satellites like the Hubble; Earth observation satellites from companies like Planet Labs, Umbra, and HawkEye 360; GPS; miniature CubeSats for education and research; and military/defense satellites.

Loading next visibility...
Identifier
40074, 2014-037F
Orbit
SSO
Last TLE update
22 hours ago
Origin
Manufacturer
ClydeSpace
Mission
Operational Commercial Technology
Bus & Motor
CUBESAT 3U, Unknown motor
Mass
4 kg wet, 4 kg dry
Launch date (UTC)
2014-07-08 (11 years ago)
Launch vehicle
SOYUZ-2-1B
Launch site
Tyuratam Missile And Space Complex (TTMTR)
Object type
Payload
Rocket body
Debris
Shape & HBR
Box + 1 Pan, 0.4 m
Radar Cross Section
0.038 m², Medium (>0.1 m² and < 1m²)

Expand to show TLE details & history

TLE from 22 hours ago
0 UKUBE 1
1 40074U 14037F   25128.45754053  .00008733  00000-0  62136-3 0  9993
2 40074  98.3905  87.9768 0003752  87.6944 272.4709 15.04913520587518
Epoch: 2025-05-08T10:58Z
Definitive object data (Epoch: 2025-05-08T10:58:51.501Z)
Latitude
-0.0001°
Longitude
56.73447°
Altitude
554.7 km
Speed
7.584 km/s
True Right ascension
05h 51m 54s
True Declination
0° 00' 00"
Sunlit
Object was in daylight at TLE epoch
Visualization TLE readout
Latitude
3.34583°
Longitude
57.25441°
Altitude
553.986 km
Speed
7.585 km/s
Apparent Right ascension
05h 43m 50s
Apparent Declination
-17° 16' 03"
Sunlit
Object is in daylight
Visualization observer readout
Local Sidereal Time
17:29:29
Azimuth
351.156° N
Elevation
-67.139°
Doppler factor
1
Orbital elements
Apogee altitude
551.401 km
Perigee altitude
546.203 km
Semi-major axis
6,926.939 km
Eccentricity
0.0003752
Inclination
98.3905°
RAAN
87.9768°
Arg. of periapsis
87.6944°
True anomaly
272.42794°
Mean anomaly
272.4709°
Eccentric anomaly
272.44942°
Mean motion
3.76471 °/min
BSTAR
0.00062136
Orbital period
95.62 mins
Loading maneuver chart data...
Loading SW <> Apogee altitude chart data...
Loading historical data...
Loading historical data...
Loading historical data...
Loading historical data...
Loading historical data...
Loading historical data...
Loading historical data...

UKUBE 1 Visibility forecast

Observer location: undefined°, undefined°

Span
Click to sort rows by Start time (UTC) header in descending order
Start Az.
Max El. time (UTC)
Max El. Az.
Max El.
End time (UTC)
End Az.
7 mins2025-05-09 09:53:10.809Z25.298° NE2025-05-09 09:56:10.809Z78.753° E37.355°2025-05-09 10:00:10.809Z177.505° S
5 mins2025-05-09 20:39:10.809Z110.872° ESE2025-05-09 20:41:10.809Z57.578° ENE26.372°2025-05-09 20:44:10.809Z8.575° NNE
4 mins2025-05-09 22:14:10.809Z240.346° WSW2025-05-09 22:15:10.809Z259.023° W17.16°2025-05-09 22:18:10.809Z309.213° NW
|